RH
30 32 31 31 30 35 37 34 45 60 63 56 57 56 57 63 57 47 45 49 61 74 73 64 58 58 59 55 51 46 49 73 90 87 94 104 96 87 84 81 79 73 59 44 35 34 38 37 34 35 36 37 47 61 51 32 36 43 38 29 19 12 10 17 20 22 39 40 28 24 29 34 35 38 39 36 30 26 25 23 22 23 26 26 29 37 42 44 47 62 88 100 97 97 96 94 94
26 26 25 25 28 35 38 36 42 52 55 59 79 87 76 86 88 68 57 56 65 80 75 56 52 59 62 56 51 55 72 94 102 101 102 97 87 84 81 73 63 49 38 29 21 23 26 23 20 23 31 37 45 45 31 30 41 39 28 19 11 10 16 22 20 32 43 31 25 29 33 35 36 39 36 30 25 23 24 22 23 23 24 32 33 33 42 44 42 55 91 107 95 100 92 86 101
23 25 24 23 25 32 37 39 40 38 43 60 86 93 78 79 90 93 84 70 68 78 71 52 56 66 64 61 59 69 89 101 100 98 92 83 77 74 67 55 45 38 34 24 15 20 21 15 15 24 31 33 33 28 28 38 40 30 18 12 9 15 23 20 25 41 38 26 28 31 33 34 36 36 31 26 22 23 24 22 24 22 27 42 43 37 41 44 44 48 81 104 90 93 81 69 98
24 24 25 24 25 28 31 34 35 37 48 55 63 66 56 46 49 63 61 50 50 59 66 63 81 90 80 83 86 89 97 98 95 87 82 80 75 68 57 46 40 38 33 20 16 17 13 11 14 23 26 25 27 29 37 41 31 19 11 10 14 22 20 18 34 42 30 27 29 29 32 32 34 32 28 24 23 26 24 23 23 23 35 48 43 35 34 36 41 39 54 83 84 89 84 68 85
25 25 24 24 25 26 28 29 28 33 44 47 49 46 36 29 25 28 25 25 28 41 73 93 105 90 73 93 102 92 83 75 76 77 78 72 62 59 55 48 43 40 35 22 18 13 8 10 12 18 21 24 28 34 41 34 20 12 10 13 20 20 14 23 38 35 26 26 27 29 30 31 32 29 27 25 27 28 23 26 23 24 39 44 37 29 27 27 30 31 31 47 62 73 79 66 66
24 25 25 25 25 25 26 29 29 29 32 35 39 35 29 28 25 26 23 25 22 31 66 86 80 51 36 59 61 48 41 40 51 61 62 49 38 47 54 51 47 41 37 27 19 13 9 9 12 18 23 29 31 36 35 21 12 10 12 18 19 14 15 26 31 26 23 25 27 29 30 30 31 28 26 28 30 27 26 28 24 24 33 35 32 29 28 29 28 31 32 34 45 51 59 55 54
23 23 24 25 25 25 25 26 27 27 28 29 28 27 28 27 26 27 26 27 26 26 39 41 34 25 22 28 26 22 24 26 34 40 38 28 25 42 54 52 48 42 37 31 20 13 10 10 16 22 28 33 30 29 23 12 11 11 16 19 15 13 17 22 22 22 22 25 28 29 29 29 30 26 28 33 29 27 30 28 28 26 26 29 27 29 29 32 33 34 38 39 43 45 50 48 47
23 24 24 24 25 25 25 24 24 25 25 25 25 24 24 24 25 26 27 28 28 28 28 26 24 25 24 24 24 23 22 22 25 27 24 22 26 44 56 51 48 42 37 32 19 12 12 14 20 23 27 27 23 19 14 11 11 13 19 17 14 17 19 19 20 21 23 26 28 28 28 29 29 26 32 34 26 30 33 28 33 32 29 32 30 33 33 35 39 40 45 47 50 51 52 52 50
22 23 24 24 25 25 25 25 25 26 26 25 24 24 23 23 24 24 26 27 27 28 27 27 27 25 25 24 24 22 21 21 21 23 20 20 26 42 54 50 48 42 36 31 17 10 13 17 19 18 19 18 15 12 11 11 12 18 21 18 18 20 20 21 22 23 25 26 27 28 27 30 27 29 36 31 28 35 34 29 34 35 34 37 36 38 38 39 42 44 48 49 51 51 50 54 55
22 22 24 25 25 26 26 26 27 27 27 28 26 25 25 25 25 24 25 26 26 26 26 26 26 25 24 22 20 19 18 18 17 17 16 18 24 39 52 50 47 41 35 29 15 9 13 14 15 14 13 12 10 10 12 12 15 22 24 22 21 20 21 24 25 26 27 27 28 27 28 29 28 35 36 30 36 39 35 32 33 37 37 36 38 38 39 40 41 45 49 52 53 53 53 52 53
24 23 23 25 25 26 27 28 28 29 28 27 27 26 27 27 27 27 26 26 25 24 25 24 23 23 21 20 18 16 15 14 13 12 12 15 24 41 52 50 46 39 32 26 14 10 11 12 12 11 9 9 10 11 12 11 18 26 26 24 21 22 25 28 29 29 28 29 29 28 30 30 34 40 30 33 46 42 39 33 30 35 36 36 37 38 40 40 42 49 58 63 61 60 60 56 54
24 25 24 25 26 26 27 28 28 28 27 27 27 27 27 28 27 27 27 25 25 25 24 22 22 21 19 18 16 14 13 11 10 10 11 16 32 49 54 50 44 37 30 21 12 10 11 9 9 8 8 9 11 11 10 13 23 27 23 21 22 26 30 31 31 31 31 31 32 31 33 35 41 38 23 39 54 47 45 37 31 32 33 36 36 37 40 41 44 52 64 67 63 62 61 58 57
24 27 25 25 25 25 25 25 26 26 26 26 25 27 26 26 26 25 25 23 23 23 23 22 20 19 17 16 16 13 10 10 9 9 12 23 44 56 53 47 41 35 27 16 11 10 9 8 8 8 9 10 11 10 10 16 24 22 19 22 27 32 34 34 34 34 35 34 36 36 39 43 41 31 20 40 58 54 52 44 36 31 31 34 35 37 38 43 47 51 60 62 62 62 60 58 56
19 23 23 24 24 24 24 24 25 25 25 25 24 25 24 24 24 23 22 22 22 21 21 20 19 18 16 15 14 11 9 9 8 11 18 35 56 58 50 45 39 32 22 13 10 9 8 8 8 9 10 10 11 9 11 18 21 19 21 27 33 39 40 39 38 38 40 40 43 44 46 44 34 26 20 33 55 60 58 52 45 39 35 34 36 39 39 43 46 48 54 57 61 63 63 60 53
13 15 18 21 23 23 23 24 24 24 23 24 23 23 23 23 22 21 21 20 19 18 18 18 17 16 14 12 11 9 9 9 10 17 28 48 62 56 48 43 36 27 16 12 9 8 7 7 8 9 11 10 10 10 14 18 17 20 26 32 39 45 47 47 48 47 50 51 51 49 45 38 28 25 23 26 43 53 52 49 48 47 44 41 40 39 40 42 42 46 51 57 62 62 62 57 50
8 10 12 15 19 21 21 22 22 22 22 21 21 21 21 20 20 19 19 18 17 17 16 15 15 14 12 10 9 8 9 11 17 27 41 58 63 54 48 43 34 21 13 11 8 7 7 7 9 10 11 9 9 12 15 17 18 25 30 35 42 47 50 53 55 56 55 52 49 46 39 31 26 26 26 22 30 40 40 40 41 44 47 47 45 40 40 40 41 46 50 60 65 61 57 53 48
7 7 8 10 13 16 17 18 19 19 20 20 19 19 19 19 18 18 17 16 15 14 14 13 12 11 10 9 8 9 12 19 28 42 57 65 63 56 48 40 30 18 11 10 7 7 7 8 10 11 11 8 10 13 14 18 22 28 32 37 42 44 48 52 53 51 47 46 45 40 30 27 28 30 27 19 24 37 37 37 38 38 42 45 46 42 41 42 43 45 52 64 64 60 56 50 47
10 9 8 9 10 11 12 13 15 15 16 16 17 16 16 16 16 15 15 14 13 12 11 11 10 9 8 8 9 11 18 31 43 57 68 69 65 56 45 38 28 15 10 8 6 7 8 9 11 10 9 8 11 14 15 21 26 30 33 37 41 44 48 48 45 44 44 45 38 29 27 29 31 28 23 17 21 36 40 39 41 39 38 40 42 42 43 44 45 48 55 61 61 65 62 49 45
12 11 11 11 11 11 12 12 12 13 13 12 12 12 12 13 13 12 12 11 10 10 10 9 8 8 8 8 11 19 32 50 65 73 77 73 64 53 44 38 26 14 8 7 6 7 9 10 11 10 8 9 12 14 18 24 29 32 35 38 42 44 42 37 35 39 39 35 28 26 28 27 23 19 18 17 20 32 38 37 38 39 40 40 40 42 43 45 47 51 57 63 73 86 86 69 52
12 11 12 13 15 14 13 12 11 11 10 10 9 9 10 10 10 10 10 10 9 9 8 8 7 7 7 10 19 34 52 73 85 85 82 73 59 49 45 40 25 12 7 7 7 8 10 10 11 10 8 11 13 16 22 27 31 33 35 38 39 37 32 30 32 32 29 27 28 27 23 17 14 14 16 18 21 28 32 32 32 34 39 43 42 42 42 47 52 55 69 87 96 96 91 80 60
13 14 13 12 13 14 13 11 11 10 9 9 8 8 9 9 10 10 10 9 8 7 7 7 7 7 10 17 33 55 75 89 93 92 86 75 62 53 49 43 24 9 6 7 9 9 9 12 11 9 9 12 15 20 26 29 31 31 33 33 31 30 29 31 31 26 24 28 29 22 15 13 13 13 14 15 18 21 24 26 26 24 28 37 44 46 45 48 50 54 76 89 77 63 55 49 42
10 13 14 13 13 12 10 10 9 8 8 8 8 8 8 8 9 9 8 8 8 8 8 10 10 12 16 27 45 68 89 96 97 96 90 83 76 65 55 44 22 6 6 9 11 10 10 13 11 8 10 14 19 24 29 30 28 27 26 26 27 29 31 31 27 22 24 26 22 16 14 15 14 14 13 13 14 15 19 19 18 17 19 28 36 42 44 46 49 49 52 49 35 31 30 26 24
10 10 11 12 13 13 13 12 11 10 9 9 9 9 9 9 10 10 10 11 14 13 10 11 11 12 17 32 50 70 93 104 103 102 97 93 88 77 61 40 16 3 7 12 12 10 11 13 9 8 13 17 23 29 31 28 23 22 21 23 27 29 29 26 23 21 21 20 17 17 17 17 17 17 16 15 15 14 16 16 14 14 16 22 27 32 37 40 42 34 28 31 36 39 34 28 25
12 12 11 11 11 12 13 14 14 13 12 12 11 11 11 11 11 11 11 11 14 13 10 10 10 10 14 30 50 68 86 90 86 85 85 85 82 76 57 28 8 3 9 14 11 11 13 12 8 10 16 21 27 31 28 23 20 20 20 24 26 25 24 23 22 20 19 18 18 19 20 20 20 19 19 18 19 21 24 26 25 20 16 14 15 18 22 24 24 25 36 49 53 51 42 36 36
13 13 12 12 11 11 12 12 12 11 11 10 10 10 9 10 10 10 10 10 11 11 11 11 11 11 12 21 35 52 62 60 61 67 70 70 68 60 40 15 3 4 12 15 11 12 14 10 9 14 21 25 29 29 23 20 19 19 21 23 22 21 21 21 20 19 19 20 20 21 22 22 22 21 21 20 20 26 31 35 36 32 26 20 17 15 17 20 25 32 43 47 44 44 42 39 41
13 13 13 13 12 12 11 12 11 11 11 10 10 9 9 9 9 10 10 10 12 11 12 12 12 12 12 16 28 44 53 59 73 78 70 61 52 41 25 8 1 8 15 14 12 14 14 9 11 19 25 28 29 25 20 20 20 19 20 20 20 19 19 20 20 20 20 21 22 23 23 22 23 22 22 22 21 22 24 26 27 28 28 25 24 23 23 24 26 26 25 24 25 26 27 27 27
15 14 13 13 13 13 13 13 12 12 12 11 11 10 10 10 9 10 10 11 12 11 12 13 13 14 15 22 38 53 57 66 80 75 60 47 38 30 18 5 4 14 18 13 13 15 12 9 15 23 27 29 27 21 21 22 19 18 19 19 19 19 19 19 20 20 20 21 22 22 23 22 22 22 22 23 23 22 21 21 20 20 21 21 21 20 20 20 18 17 15 15 15 15 16 16 16
16 16 14 13 13 13 13 14 14 14 13 12 12 11 11 11 11 10 10 12 12 11 13 14 15 16 19 29 45 58 61 66 69 58 45 37 33 26 16 10 13 21 18 12 15 15 10 11 19 26 28 27 23 20 23 21 17 18 19 19 19 18 18 19 19 20 20 20 21 21 22 22 22 22 23 23 22 22 22 21 21 19 18 18 17 17 16 17 16 16 15 15 14 14 15 14 15
16 17 15 14 13 13 13 13 14 15 15 14 13 13 12 12 12 11 12 12 11 12 13 15 17 17 20 32 48 59 61 60 54 45 37 33 33 28 20 21 24 23 16 12 15 12 10 13 21 28 26 23 20 22 23 18 17 18 18 19 19 18 18 19 19 19 20 20 20 21 21 22 22 22 23 23 23 23 22 21 21 19 19 18 17 17 16 16 16 16 15 15 15 15 15 15 15
16 17 16 15 15 15 13 13 13 14 15 15 14 14 13 14 13 12 13 12 11 12 13 16 17 17 18 29 49 61 59 53 45 38 35 35 37 32 29 31 28 21 14 13 14 11 11 16 24 28 23 20 20 21 20 17 17 18 19 19 19 19 19 19 19 19 20 21 21 21 21 22 23 23 24 24 24 24 23 22 22 20 20 19 18 18 17 17 17 17 16 16 16 16 16 16 16
15 17 16 16 17 16 14 13 14 14 15 15 15 15 14 14 13 13 13 11 12 11 13 18 17 18 14 20 49 63 55 48 42 38 37 38 39 34 31 31 24 17 13 13 12 10 13 21 28 26 20 19 20 18 17 16 17 18 19 19 19 20 20 20 20 20 21 22 22 22 22 23 23 24 24 25 25 25 24 24 23 22 20 20 19 18 18 18 17 17 17 17 17 17 16 17 17
16 17 16 15 19 19 15 14 15 14 15 16 16 16 15 15 14 14 14 12 13 11 15 19 18 18 12 19 51 60 48 45 42 40 40 38 35 29 26 26 20 14 13 12 10 10 16 25 29 23 19 19 17 16 16 16 17 18 19 19 20 21 21 22 22 22 23 23 24 23 23 24 24 24 24 25 25 25 24 23 23 22 21 20 19 19 18 18 18 17 17 17 17 17 17 18 18
16 16 15 15 19 22 17 15 17 15 16 16 16 16 15 16 15 15 15 13 13 13 17 21 19 19 17 28 51 50 43 45 43 41 40 34 28 23 23 22 17 14 13 11 9 10 18 27 27 21 19 17 16 16 17 17 17 18 19 19 20 21 22 24 24 24 24 24 24 24 24 25 25 26 26 25 25 24 23 23 23 21 21 20 19 18 18 18 18 18 17 17 18 18 19 19 20
16 14 15 15 18 24 21 17 19 17 18 18 17 17 15 16 17 16 16 14 14 14 19 24 21 20 27 40 47 41 40 45 45 42 38 32 26 22 23 19 15 14 13 10 9 12 21 28 25 20 19 16 15 17 17 17 17 18 19 20 20 21 23 24 25 25 25 26 25 24 25 26 27 27 27 26 24 24 23 22 22 21 20 20 20 19 19 19 19 19 19 19 19 20 21 22 23
16 14 15 15 18 26 24 19 20 18 18 20 19 18 16 16 17 17 16 15 14 15 18 25 24 20 29 42 43 37 38 45 48 44 39 34 29 26 23 18 15 14 12 10 9 14 22 27 23 20 18 15 15 16 17 17 17 19 19 20 20 21 23 24 25 25 25 25 25 25 25 27 28 29 31 29 26 24 23 23 21 21 21 20 20 20 20 20 20 21 21 21 22 22 23 24 25
16 14 15 15 17 26 27 21 20 18 18 21 22 21 19 16 17 17 16 16 15 16 18 23 27 23 25 35 39 36 36 44 50 48 44 38 33 30 24 19 17 13 11 10 10 16 24 26 22 19 17 15 15 16 17 17 17 19 20 20 21 21 22 23 24 24 24 25 26 26 26 28 29 32 35 34 32 27 24 23 22 21 20 20 21 21 21 22 23 23 24 24 25 25 25 26 27
15 14 15 15 17 25 28 24 22 19 17 21 25 25 22 19 18 16 16 16 16 17 19 21 26 27 25 30 37 36 35 41 47 50 49 42 35 32 25 19 17 13 11 10 13 19 25 26 22 19 17 14 15 16 17 17 18 19 20 20 20 21 21 22 23 23 23 25 25 26 27 28 29 31 33 35 36 34 28 25 23 22 21 21 21 21 22 23 25 25 25 26 27 28 29 29 30
14 14 14 15 19 25 29 30 29 24 19 20 24 27 26 23 20 17 16 16 16 17 19 20 24 28 28 30 36 36 35 39 45 50 52 44 34 29 25 19 15 13 11 11 17 22 26 26 22 19 17 14 15 16 16 17 18 18 19 20 19 20 21 21 22 22 22 24 25 26 26 28 30 31 32 36 40 38 33 28 25 23 22 21 22 22 23 24 26 28 27 28 28 29 30 31 33
13 14 14 15 19 23 27 33 34 30 24 20 23 28 29 27 23 20 17 16 17 16 18 19 21 26 29 31 36 38 38 40 43 48 53 46 32 25 22 17 15 13 11 14 20 24 28 26 21 19 16 14 14 15 17 17 17 18 18 19 18 19 20 20 21 21 21 22 23 25 26 28 31 33 34 37 41 38 33 30 27 25 23 22 23 23 24 24 26 29 29 29 29 30 32 33 34
13 13 13 14 16 18 21 28 34 36 29 21 24 27 27 29 26 23 20 17 17 17 17 18 19 25 32 33 36 39 40 40 40 46 51 44 29 21 18 16 15 13 12 16 19 24 29 25 21 20 16 14 15 15 17 17 17 18 18 18 18 17 18 20 21 21 21 22 23 24 25 27 29 31 32 34 38 36 31 29 28 26 24 23 24 24 25 25 27 30 32 30 30 31 32 33 34
12 12 13 13 13 14 15 20 29 35 30 22 25 27 26 30 30 27 24 19 18 17 17 18 17 22 31 32 34 38 41 39 38 43 48 39 25 18 16 15 15 13 13 16 19 25 29 24 22 21 16 15 14 15 16 17 17 18 18 18 17 17 17 19 20 21 21 21 22 23 23 24 25 26 27 30 34 33 29 28 27 26 25 24 25 25 25 25 28 34 34 31 30 31 32 33 33
12 11 12 12 12 13 12 16 22 28 26 21 26 31 30 30 31 32 30 22 20 19 17 18 17 18 26 30 31 35 40 39 36 41 43 34 22 16 14 15 15 13 15 17 21 29 30 24 22 21 17 15 14 15 15 16 17 17 18 18 17 17 17 17 19 20 21 21 21 22 22 22 23 23 25 27 29 29 28 26 26 26 25 25 24 25 26 26 32 38 33 29 29 30 30 31 32
11 11 11 11 11 12 12 14 16 21 24 20 24 36 36 32 33 35 34 28 23 21 17 17 18 16 21 28 30 31 37 39 36 38 40 31 20 14 13 15 15 14 16 18 24 32 30 24 23 20 18 17 15 15 15 15 16 16 17 17 17 18 17 17 18 18 20 21 21 21 21 21 22 23 24 25 26 27 26 25 25 25 24 24 24 24 25 28 37 41 33 28 29 29 30 31 31
11 11 10 10 11 11 11 12 12 17 22 19 25 38 41 38 38 36 36 33 28 25 20 16 18 18 18 26 32 31 33 37 38 37 37 29 18 12 12 15 16 16 17 20 27 32 29 24 22 20 19 18 16 15 15 15 15 16 17 17 18 18 18 18 17 18 18 19 20 21 21 21 22 23 24 24 25 25 25 25 25 25 25 24 24 24 25 28 35 38 32 28 29 29 30 31 31
12 11 11 11 10 10 11 11 12 15 18 20 27 39 46 46 43 37 36 37 34 30 24 18 18 19 17 21 31 34 33 35 38 37 34 28 17 10 12 16 16 17 18 21 29 31 27 25 22 20 20 18 18 17 15 15 16 16 16 17 18 18 18 19 18 18 18 18 20 21 21 22 22 23 24 25 25 25 25 25 25 25 25 25 25 25 26 27 30 30 28 27 28 30 31 33 33
12 11 11 11 11 10 10 11 12 13 17 24 31 40 52 53 46 42 41 41 40 34 28 21 18 20 18 17 26 36 36 35 36 35 31 25 16 10 13 16 16 17 19 24 32 31 26 25 23 21 21 19 19 18 16 16 16 16 16 17 18 18 18 19 18 19 18 19 19 20 21 21 21 22 23 25 25 26 25 25 25 25 26 27 27 27 27 27 28 28 27 27 28 29 31 33 34
12 11 11 12 11 11 10 11 12 12 16 25 29 36 53 57 50 50 48 45 41 34 32 27 19 19 19 17 19 29 37 37 35 34 28 20 13 11 15 17 16 17 21 28 33 31 27 26 25 26 25 23 21 18 17 16 16 16 16 17 17 18 19 19 19 19 19 19 19 19 20 20 20 21 21 23 24 26 27 26 26 27 32 37 35 30 28 28 28 28 28 28 28 28 29 30 31
13 13 13 13 12 11 11 11 11 12 15 20 21 25 45 57 53 54 56 49 39 34 36 31 21 18 20 20 16 18 27 32 32 31 23 14 10 11 16 17 16 17 23 31 33 30 29 28 30 33 34 30 25 20 18 17 17 17 17 17 17 18 19 20 20 20 20 20 19 19 20 19 20 20 20 21 22 24 26 28 28 30 41 50 47 36 28 26 27 27 27 27 27 27 27 27 28
16 15 15 13 12 11 12 11 11 12 13 15 14 14 31 47 45 49 58 51 37 36 39 33 24 20 19 20 16 12 16 18 20 22 15 9 8 11 17 18 16 18 24 31 33 31 31 31 31 34 36 35 31 27 23 21 19 18 18 18 18 18 18 19 21 22 22 21 21 20 20 20 20 20 20 20 21 23 24 27 29 33 42 51 55 50 40 30 25 25 26 26 26 26 26 27 27
17 15 15 13 12 13 13 13 12 12 12 13 12 10 20 30 29 37 51 44 32 36 41 34 28 23 19 20 17 12 12 12 13 13 9 7 7 11 17 19 16 18 22 28 32 33 34 33 31 31 33 36 35 33 29 27 25 23 20 19 19 19 19 19 21 23 24 24 24 23 21 20 20 19 20 20 22 24 25 27 30 33 39 45 53 58 56 45 31 25 25 25 25 25 25 26 26
16 15 14 14 16 17 16 16 15 15 14 13 12 11 14 19 18 26 40 36 27 35 41 36 31 27 21 20 19 14 12 12 11 9 7 7 7 12 18 19 17 18 20 24 29 33 34 33 32 31 32 34 36 36 34 32 31 29 27 24 21 20 20 20 21 22 25 28 28 26 24 22 22 20 20 20 21 24 27 32 36 39 42 47 53 60 65 60 42 28 25 25 24 25 24 25 25
18 16 18 22 24 21 18 18 17 17 17 15 14 13 13 15 14 19 32 31 25 36 44 38 34 32 25 21 20 16 13 14 12 8 7 7 8 13 18 19 18 18 19 21 25 28 31 32 33 33 33 34 36 37 37 35 34 33 32 29 26 23 22 22 23 25 28 30 29 28 28 27 25 23 22 22 23 25 26 32 40 45 46 50 56 60 65 63 47 32 26 25 25 25 25 25 25
20 18 25 29 23 18 17 19 18 18 21 19 16 16 14 14 13 15 24 26 23 35 46 41 37 37 32 25 21 18 15 14 12 8 7 9 10 14 18 19 18 18 19 20 21 23 25 28 30 32 34 35 34 34 36 37 35 33 34 34 29 25 23 25 27 28 30 31 32 34 38 40 40 37 33 31 32 33 34 37 42 47 49 51 55 57 56 52 41 30 27 25 24 25 25 25 26
21 25 29 25 18 20 23 25 27 28 29 24 18 17 15 13 14 15 20 23 24 35 46 43 40 41 38 31 24 19 17 14 12 9 8 10 13 15 17 17 17 16 17 18 19 20 22 24 27 30 32 34 32 30 32 37 36 33 34 35 31 26 26 28 29 32 37 41 47 55 62 67 70 70 65 58 52 49 51 53 51 50 50 50 51 50 44 38 31 27 26 24 24 25 25 25 27
24 28 25 21 23 27 29 33 39 38 31 23 18 17 16 13 13 14 16 19 23 35 48 48 43 44 44 39 29 22 18 16 14 11 8 11 15 16 16 15 14 13 14 16 17 17 19 20 22 25 27 29 30 29 31 34 34 33 35 35 32 29 28 29 33 43 52 56 63 73 80 85 90 92 90 84 75 69 67 65 60 52 45 39 38 38 33 28 26 25 24 24 24 25 26 26 27
25 26 22 24 28 29 33 39 45 42 33 27 23 19 17 15 13 13 13 13 17 28 43 49 49 49 49 46 37 27 21 19 17 13 10 12 16 17 16 14 13 12 12 13 15 16 17 18 18 19 20 23 26 28 31 33 34 35 37 36 31 29 31 37 48 60 65 65 68 73 75 79 87 92 95 93 89 83 77 71 63 48 33 26 25 26 25 24 24 23 23 24 25 26 26 27 27
26 26 23 28 29 30 36 41 46 49 43 34 28 22 18 15 13 13 13 12 13 19 30 42 50 52 51 49 44 34 25 22 22 18 13 11 15 17 16 14 13 12 12 12 14 17 17 17 17 17 18 19 23 26 30 33 36 38 37 34 32 35 42 51 61 66 66 64 63 64 64 68 76 86 93 93 88 83 78 72 59 41 26 21 20 21 23 23 23 23 23 24 24 26 27 27 29
31 28 25 29 31 32 37 40 47 57 51 37 27 22 18 15 14 15 14 12 12 14 22 33 45 52 52 49 48 43 33 25 24 24 21 14 14 17 17 15 13 12 13 13 14 16 17 18 19 19 20 21 23 27 30 34 38 39 37 36 37 44 52 58 60 58 57 56 54 54 56 58 64 74 85 88 79 70 66 57 43 31 24 21 22 24 24 25 25 23 23 24 25 26 27 28 30
Wind_Speed
23 22 20 19 17 17 16 15 15 14 15 16 16 15 15 14 15 17 16 16 16 15 14 14 15 16 16 15 17 18 18 16 18 22 23 22 22 23 23 24 25 27 27 27 26 26 25 25 25 25 26 26 26 25 26 28 25 24 25 24 19 14 12 10 9 10 11 11 12 14 14 13 13 14 16 18 22 25 29 31 28 24 20 15 9 7 8 6 5 5 5 4 5 5 4 6 6
23 23 21 20 19 18 17 15 17 16 15 17 18 18 18 16 16 17 18 19 18 18 17 17 18 18 17 17 20 21 18 17 21 24 23 21 22 22 23 24 25 25 24 25 25 24 24 24 25 25 23 23 24 25 27 25 23 23 22 18 13 11 9 8 9 10 11 11 12 12 12 11 11 12 14 17 21 24 29 30 26 23 20 15 12 10 10 8 6 6 6 7 7 5 7 9 9
24 23 22 21 20 20 19 18 18 17 18 20 20 21 21 19 18 18 19 21 22 21 20 20 21 19 18 20 22 22 21 21 23 21 19 19 21 22 23 24 23 23 23 25 25 24 24 24 24 23 21 22 23 24 24 22 22 21 17 12 9 8 7 7 8 10 10 10 11 10 9 9 10 12 15 18 22 26 29 28 24 22 19 16 15 13 11 8 6 6 6 7 7 6 6 7 9
26 24 23 21 21 20 20 21 20 20 22 23 21 22 23 22 21 21 22 23 23 22 21 20 19 17 19 22 24 23 21 21 20 19 19 20 21 23 24 24 24 24 23 25 24 24 25 25 23 21 21 22 23 23 21 20 20 16 11 8 6 6 6 7 9 10 9 9 9 8 7 8 9 12 17 21 24 28 29 26 24 23 20 19 18 16 13 10 9 7 7 7 6 6 6 5 7
28 26 25 24 23 22 21 21 21 22 23 22 21 22 22 22 22 22 22 21 20 20 20 17 16 17 20 23 23 22 21 22 22 22 22 22 23 24 25 25 25 24 24 25 25 25 25 24 23 21 22 22 22 20 19 19 15 10 7 5 5 5 6 7 10 10 8 8 7 6 7 8 10 15 20 23 26 28 26 25 26 25 24 24 23 22 20 19 17 14 11 8 6 5 6 5 7
29 29 28 26 25 24 23 23 23 23 23 23 23 23 22 22 22 21 20 20 19 18 19 19 20 22 23 24 24 24 25 26 26 25 25 25 26 25 25 25 25 25 25 26 26 26 26 24 23 22 22 21 20 18 17 14 9 7 5 5 5 5 7 9 9 8 7 6 5 6 7 9 13 18 22 24 27 27 25 25 26 27 28 27 28 28 28 28 26 24 21 18 15 12 11 11 11
29 29 29 28 27 26 25 25 25 24 25 25 25 25 24 24 23 22 21 21 20 19 20 22 23 24 25 25 26 27 28 28 28 27 27 27 26 24 24 25 25 25 26 27 27 26 25 24 23 22 21 19 18 16 13 9 6 4 4 6 6 7 8 9 8 7 6 5 5 7 9 11 15 19 23 25 26 25 23 24 26 28 29 29 31 32 32 32 31 30 28 27 25 23 19 17 16
30 30 29 29 29 28 28 27 27 26 26 26 26 26 25 25 24 24 23 23 22 22 23 24 25 25 26 27 27 28 29 29 29 29 29 27 25 24 23 24 24 25 26 26 26 26 25 24 23 21 19 17 15 12 8 5 4 3 7 7 7 8 9 8 7 6 6 6 6 9 10 13 17 20 23 25 24 22 22 22 25 27 28 30 31 32 33 32 32 31 30 28 26 24 22 20 18
32 31 30 30 30 29 29 29 28 28 28 28 27 27 26 26 26 26 26 26 26 26 26 26 26 27 27 28 29 29 30 29 29 29 28 26 24 23 23 23 24 24 25 25 25 24 23 23 21 18 16 14 11 7 5 4 2 6 8 8 8 9 8 8 7 7 7 7 8 10 12 14 17 20 22 23 22 20 20 20 22 24 26 28 29 30 31 30 30 29 28 26 24 22 21 20 19
33 32 32 31 31 30 30 30 30 30 30 29 29 28 28 28 28 28 28 28 28 28 28 28 28 28 29 30 31 30 30 29 28 28 27 25 23 22 22 22 23 23 24 24 23 23 23 21 18 14 12 10 7 4 3 1 5 8 8 8 9 9 8 8 8 8 8 8 10 11 13 15 17 19 21 21 20 18 18 17 19 21 23 25 26 27 28 28 28 27 26 25 24 23 22 21 20
35 34 33 33 33 32 32 32 31 31 31 31 30 30 30 30 30 30 30 30 31 31 31 30 30 30 30 31 31 30 29 29 28 27 26 24 22 21 21 21 22 22 23 23 22 22 21 17 13 11 9 6 4 3 2 5 7 8 8 9 9 9 9 9 10 10 10 10 12 12 14 15 17 18 20 20 18 18 17 15 16 18 20 22 24 25 26 26 26 25 25 25 25 24 23 23 22
36 35 35 35 35 35 34 34 34 34 33 32 32 31 32 32 32 32 33 33 32 32 32 32 32 31 32 32 31 30 29 28 27 26 25 22 20 20 20 20 21 21 22 22 21 20 17 13 10 8 6 4 3 2 4 7 8 8 9 10 10 10 11 11 11 10 11 12 12 13 14 14 16 18 18 19 18 17 16 14 13 15 17 19 21 22 23 24 24 24 24 25 25 25 24 23 23
37 37 36 36 37 37 37 36 36 36 35 34 33 33 34 34 34 34 35 34 34 34 34 34 33 33 33 32 31 31 29 28 26 25 23 20 19 18 19 19 19 20 21 20 19 17 12 9 8 6 5 4 2 4 7 9 8 8 10 11 12 12 13 13 12 12 12 12 12 12 13 14 16 16 17 18 18 16 16 14 12 12 14 16 17 19 20 21 22 23 24 24 24 23 23 22 22
39 38 38 38 38 39 39 38 38 38 37 36 35 35 36 36 36 36 36 36 36 36 35 35 34 34 34 33 32 30 29 27 25 23 20 18 17 17 18 18 19 20 19 18 16 12 9 7 6 5 4 2 3 6 9 9 9 10 12 13 13 14 14 14 13 12 12 12 12 12 13 14 15 15 17 18 17 16 16 14 12 11 11 13 15 16 17 19 20 22 23 22 23 22 22 21 22
39 39 39 39 39 40 40 40 39 39 39 38 38 38 38 38 38 38 37 37 37 36 36 36 35 35 34 33 32 30 28 26 24 21 18 16 15 16 17 18 18 18 17 15 12 8 7 7 6 5 3 2 6 8 9 9 10 12 14 13 14 14 15 14 13 13 12 12 11 11 12 13 14 15 16 17 17 16 16 16 13 11 10 11 12 13 14 16 18 20 21 21 21 21 20 20 20
38 39 40 40 40 41 42 42 41 41 40 40 40 40 40 40 39 39 39 38 37 37 36 36 36 35 34 33 32 30 28 25 22 19 16 14 15 16 17 17 17 16 14 12 9 6 6 6 6 4 1 5 8 9 9 10 12 14 14 14 14 15 15 14 13 12 11 10 10 11 12 13 14 14 15 16 16 16 17 17 16 13 11 10 10 10 12 13 16 18 19 18 19 20 20 20 20
35 37 39 39 40 41 42 42 42 42 42 41 42 42 41 41 40 39 39 38 37 37 37 37 36 35 34 33 32 30 27 24 20 17 14 14 15 16 16 16 15 14 12 9 6 5 6 5 4 1 4 8 8 8 10 12 14 14 14 14 14 15 14 13 12 10 9 9 10 11 12 12 13 14 14 15 14 16 17 18 19 17 14 12 10 10 11 12 14 15 16 16 17 19 20 21 20
30 33 35 36 37 39 41 42 42 42 42 42 42 42 41 41 40 39 38 38 38 38 37 36 36 35 34 33 31 29 26 22 19 15 13 13 14 15 14 14 14 12 9 6 4 5 5 4 2 2 7 9 8 9 12 14 15 14 14 14 14 13 13 12 10 9 9 10 11 12 12 13 13 14 14 14 13 15 17 18 19 19 17 16 14 13 12 13 13 14 14 15 16 18 19 20 19
22 26 29 31 33 35 38 39 40 40 41 41 41 41 40 39 39 39 38 38 38 37 36 36 35 35 34 32 30 27 24 20 17 14 13 14 14 14 13 13 12 10 7 4 4 5 4 3 1 6 9 9 9 11 14 15 15 15 14 13 13 13 12 12 11 11 11 12 12 13 13 14 15 15 15 14 14 15 16 17 18 18 17 17 17 16 15 14 14 14 15 16 16 16 16 17 18
12 17 21 24 27 30 33 35 36 37 38 38 38 38 37 37 37 37 36 36 36 35 35 34 34 34 33 31 29 25 21 17 15 12 12 14 14 12 12 12 12 9 6 4 4 4 3 0 4 8 10 9 10 13 15 16 15 14 14 13 13 13 13 12 12 13 13 13 13 14 15 16 17 18 18 17 16 15 15 16 16 15 16 16 16 16 16 16 15 14 15 16 16 14 14 14 15
7 9 13 16 20 23 26 28 30 32 33 33 33 33 33 33 33 33 33 33 33 33 32 32 32 32 32 31 27 23 19 16 14 12 13 13 13 12 12 13 12 8 6 5 4 4 2 3 8 10 10 11 13 14 16 16 15 14 13 13 14 14 13 13 13 13 13 14 14 16 17 17 18 19 19 18 17 16 15 15 15 14 14 14 15 15 15 15 14 14 15 15 14 14 14 13 14
6 6 7 9 12 15 17 19 22 25 27 27 28 28 28 28 28 28 29 29 29 28 28 28 29 29 30 29 25 21 18 16 13 13 13 13 13 13 14 14 13 9 7 6 5 4 3 7 11 11 11 13 15 16 16 15 14 14 14 14 14 14 13 13 13 14 14 15 16 17 18 19 19 20 20 19 18 17 17 16 16 16 16 15 14 14 14 14 14 15 16 16 16 16 16 16 15
8 7 6 6 7 9 10 12 15 18 20 21 22 23 23 23 23 23 23 22 23 22 22 23 24 25 26 26 23 19 17 16 14 15 16 16 16 16 16 16 13 10 8 7 5 4 6 11 13 12 12 15 17 17 16 14 14 15 15 15 15 14 14 13 14 15 16 17 18 19 20 20 21 21 21 21 20 19 19 19 19 19 19 18 17 16 15 15 15 17 18 19 19 19 20 19 18
9 9 8 7 6 7 7 8 10 11 13 14 15 16 15 15 16 16 16 17 17 17 18 19 21 23 23 24 23 20 19 18 18 19 20 20 20 19 17 16 13 11 9 7 5 5 9 13 13 13 14 16 18 17 15 15 15 15 15 15 15 14 14 14 15 16 18 19 20 20 21 21 22 23 23 23 23 22 22 22 22 22 22 22 21 20 19 18 18 19 20 20 20 21 22 23 21
11 11 10 9 8 8 8 8 8 9 9 10 10 10 10 11 11 12 13 13 14 15 16 18 20 21 22 23 23 20 17 15 16 17 19 18 17 18 17 16 14 12 10 8 6 9 13 15 14 14 17 18 17 16 15 15 15 16 16 16 15 15 14 15 16 18 19 20 21 21 21 22 23 24 24 25 26 26 25 25 25 24 24 23 23 22 21 21 20 21 21 20 20 21 22 23 22
13 13 12 11 11 10 9 9 10 10 10 10 10 10 9 10 10 11 11 11 12 14 15 17 19 21 21 21 19 16 12 11 12 14 14 14 15 17 17 16 14 12 11 8 8 12 16 16 15 16 18 18 17 16 16 16 16 16 16 16 16 15 15 17 18 19 21 21 21 22 22 22 23 24 25 26 27 27 27 27 27 26 26 25 24 24 23 23 23 23 23 23 23 23 23 24 23
17 15 14 13 12 11 11 11 11 11 12 11 11 10 9 10 10 11 11 11 12 13 15 17 19 20 20 19 16 12 10 10 11 13 13 14 15 17 17 16 15 14 12 10 11 15 17 17 17 18 19 18 17 17 17 16 16 16 16 17 16 16 17 18 19 21 22 22 22 22 22 22 23 24 25 26 27 28 28 28 28 28 28 27 27 26 26 26 27 27 27 27 28 28 27 26 26
20 18 17 15 14 13 13 12 12 12 13 12 11 10 9 9 11 11 11 11 12 13 15 17 18 19 19 18 15 12 9 10 11 13 14 15 16 16 17 16 15 14 12 12 15 18 18 18 18 19 19 19 18 18 17 17 17 17 17 17 17 17 18 19 20 21 22 22 22 22 22 22 23 24 25 26 27 28 29 29 29 29 29 29 29 29 29 29 29 30 30 30 30 30 30 29 28
22 21 20 18 16 15 15 14 14 13 13 13 12 11 10 9 11 11 11 11 11 13 15 16 18 18 18 17 15 13 10 10 12 14 15 15 15 15 17 16 15 14 12 14 18 20 19 19 20 20 19 19 19 18 18 18 17 17 17 17 17 18 19 20 21 22 22 22 22 22 22 23 23 24 25 25 26 27 28 29 29 30 30 30 30 30 31 31 31 31 31 31 32 32 31 31 30
24 24 23 21 18 18 18 16 15 14 14 14 13 12 11 10 11 11 12 11 12 13 14 16 17 17 16 16 16 14 11 10 12 14 15 15 15 14 16 16 15 14 13 16 20 21 20 20 20 20 19 20 19 19 18 18 18 18 17 17 17 18 19 20 21 21 22 21 21 21 22 23 23 24 24 25 26 26 27 28 28 29 30 30 30 31 31 31 31 31 32 32 32 32 32 32 32
25 25 25 24 21 22 21 18 16 15 14 14 13 13 12 12 12 12 12 11 12 13 14 16 15 15 14 14 17 15 12 11 12 14 15 15 14 14 16 16 16 14 14 18 21 22 21 21 21 20 20 20 19 19 18 18 18 18 17 17 17 18 19 19 20 21 21 21 20 21 22 23 23 24 24 25 25 26 26 27 27 28 29 30 30 31 31 31 31 32 32 33 33 33 33 33 33
27 26 27 26 24 25 24 21 19 17 15 14 14 13 13 13 12 12 12 11 11 12 13 15 14 12 10 14 19 16 14 12 13 14 14 14 13 15 16 17 17 15 15 19 22 22 22 22 21 21 21 20 19 18 18 19 19 18 17 17 17 17 18 18 19 19 20 20 20 20 21 22 23 24 25 25 25 26 26 26 27 28 29 29 30 31 31 31 31 32 32 32 33 33 33 33 33
30 29 29 28 26 27 27 24 22 20 16 15 15 15 14 13 12 12 12 11 11 11 12 14 13 9 8 16 19 17 16 14 13 13 14 13 13 16 18 18 17 16 17 21 22 22 23 23 22 21 21 20 19 19 19 19 19 18 17 16 16 17 17 17 17 18 19 19 19 20 21 22 23 24 24 25 25 26 26 26 27 28 28 28 29 30 31 31 31 31 31 31 32 32 32 32 33
34 31 29 29 28 30 30 27 25 23 18 16 16 16 15 14 13 12 12 12 10 9 10 12 12 7 9 16 17 17 18 16 14 13 13 12 13 16 18 18 17 17 20 22 22 23 24 23 22 22 21 20 19 18 18 19 18 18 17 16 16 16 16 16 16 17 17 18 18 19 20 21 22 23 24 24 25 25 25 25 26 26 26 27 28 28 29 29 30 29 29 29 29 30 30 30 31
36 33 31 31 30 32 33 30 28 26 22 19 17 17 17 15 14 13 12 12 10 8 9 11 11 8 10 15 16 18 19 18 16 14 12 11 13 16 18 19 18 19 22 23 22 23 24 24 23 23 22 20 19 19 18 18 18 17 16 16 15 16 16 16 15 16 17 17 17 19 20 20 21 22 23 23 23 24 24 23 24 24 24 24 25 26 27 27 27 28 27 27 27 28 28 29 29
37 35 33 32 33 34 35 33 32 30 25 22 19 18 18 17 16 15 13 12 10 8 7 9 11 9 10 14 16 18 20 20 18 16 12 11 14 16 18 19 19 20 23 23 22 23 24 23 23 23 21 20 19 19 19 18 18 17 16 15 15 15 16 15 15 15 16 16 17 18 18 19 19 20 20 21 21 21 21 21 21 21 21 21 22 23 23 24 25 25 25 25 26 26 27 28 28
38 37 36 35 36 37 37 36 35 33 29 25 22 20 19 19 18 17 15 13 11 8 7 8 10 11 12 15 17 19 21 22 20 18 14 12 14 17 18 19 19 22 24 23 23 24 24 23 22 22 21 20 19 19 19 19 18 17 16 15 15 15 15 15 14 14 15 16 16 16 17 17 17 16 16 17 17 18 18 19 19 19 19 18 19 19 20 21 22 22 23 23 24 25 26 26 26
39 40 41 39 40 41 39 38 38 36 33 29 25 22 20 21 20 18 17 14 12 10 8 7 9 11 14 16 19 21 22 23 22 19 16 14 14 17 19 19 19 22 24 24 24 25 25 24 23 22 21 20 19 19 19 19 18 17 16 15 15 14 15 14 14 14 14 14 15 15 15 15 15 14 13 14 15 15 16 16 17 17 16 16 16 16 16 17 18 19 20 21 22 23 24 25 25
41 42 43 43 45 44 41 41 41 38 37 33 29 26 24 23 22 19 18 16 14 12 10 8 8 10 14 18 20 21 23 23 23 20 17 15 15 17 19 19 20 23 24 25 27 27 25 24 23 22 20 19 18 18 19 18 18 17 16 15 14 14 14 14 13 13 13 13 13 13 13 13 13 12 12 12 13 13 14 14 15 15 14 14 14 13 13 14 15 16 17 19 20 22 22 23 23
43 44 46 48 48 47 45 44 42 41 41 36 32 30 27 25 23 20 20 18 15 14 13 10 8 9 13 18 22 22 23 24 24 21 18 15 15 17 20 21 23 24 25 26 28 28 26 25 23 21 20 19 18 18 18 17 17 16 15 14 14 13 13 13 12 11 11 12 12 12 11 11 11 11 11 11 11 11 12 12 12 13 12 12 11 11 11 12 13 14 15 17 19 20 21 21 22
45 45 47 50 49 48 47 44 43 44 43 38 35 33 29 27 25 21 21 20 17 16 15 13 10 10 13 18 22 23 23 24 24 23 19 16 15 18 21 23 25 25 24 25 27 27 26 25 24 22 20 19 17 17 17 16 16 15 14 13 12 12 12 12 11 10 10 10 10 10 9 9 9 9 9 9 9 9 10 10 11 11 11 10 10 9 9 10 11 12 14 16 17 18 19 20 21
44 44 47 49 47 46 45 44 46 46 43 39 36 34 32 29 26 23 23 22 20 19 17 15 13 11 13 17 20 22 23 23 24 23 21 17 16 18 21 24 26 26 24 25 27 27 26 26 25 23 21 19 17 16 16 15 15 14 13 11 10 10 10 10 10 9 9 8 8 8 8 8 7 7 8 7 7 7 7 8 9 9 9 8 8 8 8 8 9 11 12 14 15 16 17 18 20
42 43 46 46 44 45 44 45 46 44 44 40 36 36 35 31 28 27 26 24 22 21 20 18 15 12 12 15 18 21 23 23 23 24 22 18 16 18 21 24 26 26 25 26 28 27 27 27 25 24 22 19 17 16 15 15 14 13 11 10 8 7 7 7 8 8 8 7 6 6 6 7 6 6 6 6 6 5 6 6 7 7 7 7 7 7 7 7 8 10 12 13 14 15 16 18 19
40 41 42 42 43 42 42 42 42 43 45 41 37 38 36 34 33 31 29 26 25 24 22 20 17 14 13 14 17 19 21 23 23 24 22 19 17 18 22 26 27 26 26 28 29 28 27 26 24 23 22 20 18 16 15 14 13 12 11 10 8 6 5 4 5 6 6 6 6 5 5 6 6 5 5 5 5 5 5 6 6 7 7 7 7 7 8 8 9 10 11 13 14 14 16 17 19
39 39 39 39 40 39 39 38 39 43 45 42 41 40 38 39 37 34 31 29 28 27 25 22 19 16 14 15 17 19 20 22 24 24 22 20 19 20 24 28 30 29 29 30 29 28 26 25 25 24 23 21 20 18 17 15 14 13 12 11 9 7 6 4 3 3 4 4 4 4 4 5 5 5 5 4 5 5 6 6 7 7 8 9 9 9 10 10 10 11 12 13 14 15 16 18 19
38 36 36 37 38 37 37 37 39 43 43 43 46 44 42 43 40 36 34 34 33 31 27 24 21 19 17 15 18 20 21 22 23 23 23 21 20 22 26 31 33 31 30 30 29 28 27 26 25 24 23 23 22 21 20 18 16 14 13 12 10 9 7 6 4 2 2 2 2 2 3 3 4 5 5 5 5 5 7 7 7 8 9 10 11 11 12 12 13 13 14 14 15 16 18 19 20
35 33 33 35 36 36 36 38 40 42 43 47 51 48 46 46 43 39 39 41 38 32 27 26 24 22 18 15 17 21 23 23 23 24 24 22 23 25 29 33 33 31 32 32 31 30 28 26 24 24 24 24 24 23 21 19 17 15 13 12 11 9 8 7 6 5 4 3 2 1 0 1 2 3 4 5 4 5 6 7 8 8 9 10 12 12 13 13 14 15 16 16 17 18 19 20 21
33 32 33 34 34 34 35 37 39 42 47 52 54 52 50 50 46 43 45 45 39 32 29 29 26 23 20 17 17 19 22 24 24 25 26 25 27 29 32 34 33 32 33 33 32 31 29 27 26 25 24 24 24 22 21 19 18 16 14 12 11 10 9 8 7 7 6 6 5 4 4 3 3 3 3 4 4 4 5 6 7 7 8 10 12 13 13 14 15 16 17 18 18 19 20 21 23
34 32 32 32 31 31 32 35 39 44 49 53 54 52 50 52 49 46 48 45 38 34 33 32 28 24 22 19 17 17 20 22 24 26 27 27 29 30 32 34 33 33 33 33 33 31 30 29 28 27 24 23 21 21 20 19 19 18 16 15 14 12 11 10 9 9 8 8 8 8 7 6 6 6 5 5 4 4 4 4 5 6 8 11 12 14 14 15 16 16 18 19 20 21 22 23 24
35 32 31 30 29 30 32 35 38 41 45 49 50 47 50 55 51 47 49 44 38 37 36 33 30 26 24 20 17 17 18 20 23 26 27 28 29 30 33 34 34 33 33 34 34 33 31 30 29 27 25 23 20 19 19 19 19 18 18 17 16 14 14 13 12 11 11 10 10 11 10 9 9 9 8 8 7 7 6 6 6 7 9 12 13 15 16 17 18 18 19 20 21 23 23 24 25
35 31 29 27 26 29 32 33 34 36 40 43 44 43 50 55 50 47 48 44 39 38 37 35 31 27 25 21 19 18 19 20 22 26 27 28 30 32 34 35 34 34 34 34 35 35 34 32 30 28 26 24 22 20 19 19 18 18 18 18 17 16 16 15 14 13 12 12 13 13 12 11 11 11 10 10 10 10 11 11 11 11 12 14 15 16 17 18 20 20 21 21 23 24 25 26 27
34 30 26 25 27 29 29 28 29 32 35 39 41 42 48 53 50 47 47 45 42 39 38 36 32 29 27 23 22 21 20 20 22 25 27 29 31 34 36 37 36 35 35 34 35 36 35 33 31 29 27 25 24 23 22 20 20 19 19 19 18 18 17 16 16 15 15 15 14 13 12 12 13 13 13 13 12 12 13 15 15 15 15 16 17 18 19 20 21 21 22 23 24 25 26 27 28
35 30 28 29 29 27 24 24 25 28 32 37 40 41 45 49 49 48 48 47 44 41 39 37 35 32 29 27 25 23 22 21 23 26 27 28 31 34 37 38 38 37 36 35 35 35 34 33 31 30 29 27 26 25 24 23 22 21 20 20 19 19 18 17 17 17 16 15 14 13 13 13 14 15 15 15 15 15 15 16 18 18 18 18 19 20 20 21 22 22 23 24 25 26 27 28 29
36 32 32 31 26 23 22 22 24 27 31 37 39 40 43 47 48 49 50 49 46 43 41 39 36 34 33 30 28 26 25 23 23 25 27 29 32 34 36 38 39 39 37 36 34 33 32 31 31 30 30 29 27 25 24 25 25 24 22 21 20 19 19 18 18 17 16 14 13 13 14 15 16 17 18 18 19 19 18 18 19 20 20 19 20 21 22 22 23 23 24 25 26 27 28 29 30
39 38 36 30 26 26 24 22 24 28 32 36 37 37 39 44 48 50 50 50 48 46 44 41 38 37 36 34 31 29 27 25 24 25 27 30 33 34 36 37 38 38 38 37 35 33 32 31 31 32 31 30 28 27 27 27 26 25 23 21 21 21 20 19 18 17 16 15 14 15 16 17 18 20 21 22 22 22 22 21 21 22 22 21 22 23 23 24 24 25 25 26 28 29 30 30 31
43 42 36 32 32 30 27 25 26 29 31 33 34 35 37 41 44 46 48 49 49 48 47 44 41 39 39 38 34 31 29 27 26 25 28 31 33 34 36 36 36 35 35 34 34 33 33 32 32 32 32 30 30 30 29 28 27 25 23 23 22 21 20 19 18 18 18 17 17 17 17 18 20 22 23 24 24 24 24 24 23 23 24 24 24 24 25 26 26 27 27 28 29 30 31 32 33
46 44 39 37 37 34 32 30 28 28 32 33 34 35 36 37 39 41 44 46 48 49 49 47 44 42 41 39 36 33 31 30 28 27 28 30 32 34 35 35 35 33 32 31 31 32 32 32 32 32 31 31 31 31 30 28 27 26 25 24 23 22 21 21 20 20 19 19 19 19 19 20 22 23 25 25 26 25 25 25 25 25 25 25 26 26 27 28 29 29 30 30 31 32 33 34 35
52 49 46 44 43 40 37 34 31 31 34 36 35 34 34 33 35 38 41 44 47 48 49 48 47 44 42 40 38 35 33 32 31 30 29 30 31 33 34 33 33 32 31 30 31 32 32 32 33 32 32 32 33 32 31 29 28 28 27 26 26 26 25 24 22 22 21 20 21 21 22 23 24 25 26 26 26 26 26 26 26 26 26 27 28 28 29 30 31 31 32 32 33 34 35 35 36
Wind_Direction
202 206 212 215 216 219 220 219 220 215 211 225 232 237 241 239 252 260 267 274 276 283 289 293 296 296 295 300 305 304 302 299 301 303 298 293 300 305 308 309 308 308 308 309 309 307 305 304 303 301 299 300 300 295 296 304 310 315 318 320 321 326 340 349 357 16 44 66 79 84 85 80 74 65 49 34 24 18 16 16 19 20 19 20 27 49 63 75 81 100 116 113 92 82 85 75 66
204 205 209 213 215 218 221 220 221 222 223 232 226 225 237 239 248 261 268 272 275 281 289 295 295 294 296 303 304 298 293 294 301 305 305 307 311 313 312 312 311 311 313 313 314 312 308 309 309 305 303 302 299 296 301 308 315 318 319 320 324 339 354 359 12 43 70 85 92 94 90 81 72 57 40 26 16 12 12 15 21 23 23 30 45 64 76 82 89 106 114 104 92 78 75 65 57
209 209 209 212 214 215 218 219 222 229 229 230 227 228 240 243 244 253 261 268 275 280 287 293 293 294 301 301 294 289 288 296 306 314 321 323 321 319 318 317 316 318 318 318 319 317 313 315 315 308 305 304 300 301 308 315 319 320 320 323 339 358 6 12 39 74 92 99 101 98 89 76 62 45 28 16 10 9 12 18 27 30 34 46 56 65 75 82 90 113 125 116 108 86 76 67 58
212 213 215 215 216 217 219 221 222 227 228 230 237 241 247 252 252 255 261 269 276 281 286 289 290 295 300 293 285 287 294 304 316 325 328 328 325 325 325 324 323 322 321 320 321 320 317 318 317 309 306 305 303 308 316 321 321 320 323 336 2 17 20 36 74 99 106 107 105 97 81 62 46 29 17 10 10 11 15 25 35 39 47 58 61 64 68 73 82 101 124 134 134 98 78 71 41
215 216 218 219 221 222 222 225 225 227 231 235 242 247 250 256 260 262 266 272 277 282 282 281 287 296 295 288 287 295 303 308 314 318 320 321 321 323 325 326 326 325 323 322 322 321 321 320 316 310 307 307 309 315 322 324 322 322 335 4 34 38 42 70 98 112 112 108 101 86 62 44 30 19 12 10 10 12 21 36 42 48 57 63 66 69 70 72 73 78 88 104 117 93 65 51 26
219 220 221 222 224 225 226 229 231 232 236 240 245 250 255 260 264 268 272 275 277 279 276 275 283 291 291 290 294 299 303 305 307 309 311 313 315 318 321 323 325 324 323 323 323 323 322 321 316 312 311 312 315 322 326 325 323 331 360 50 59 56 71 90 106 114 108 96 83 63 42 30 20 15 13 11 12 17 31 42 47 55 61 66 70 72 73 73 74 74 76 78 80 76 66 57 51
224 224 225 226 228 228 229 232 235 237 239 242 247 252 256 261 266 270 274 275 277 277 276 277 283 288 290 291 295 298 301 304 305 308 310 311 313 316 319 321 324 323 322 323 323 324 323 321 317 314 314 315 320 328 329 325 327 351 61 78 71 77 85 93 104 106 90 74 62 42 28 21 16 14 14 12 14 25 39 45 52 59 63 68 71 73 74 74 75 75 76 76 76 75 73 69 65
228 228 229 230 231 232 234 236 238 241 243 246 249 253 257 262 266 270 273 275 277 277 277 279 283 287 291 293 296 298 301 303 305 307 309 311 312 315 318 321 323 322 321 322 323 324 323 320 318 317 316 317 326 333 330 325 338 61 90 82 81 86 84 88 92 84 69 59 45 31 23 16 13 14 15 13 18 33 45 48 55 59 63 68 70 73 74 74 75 75 75 76 76 74 72 70 64
229 231 232 234 235 236 237 239 241 243 246 249 252 255 259 262 266 269 272 274 276 277 279 281 284 288 291 294 297 299 301 303 305 306 307 309 311 313 317 319 320 320 320 321 321 322 320 318 318 317 317 322 334 339 328 332 52 97 92 84 86 83 82 81 75 67 58 48 36 28 19 13 12 14 15 15 23 39 50 52 55 57 61 65 68 70 71 71 71 70 70 71 70 67 65 64 60
229 232 234 236 237 239 240 242 244 245 248 250 253 256 259 262 265 267 270 273 275 277 280 282 285 288 291 294 296 298 301 302 304 305 306 308 309 311 314 317 318 318 318 318 319 320 319 318 318 317 321 333 346 342 335 41 102 100 92 87 84 80 79 71 64 60 54 44 33 24 16 12 13 15 17 20 28 42 52 55 55 55 57 61 63 65 65 64 64 64 64 62 61 59 59 58 56
231 232 234 237 239 240 242 243 245 246 249 251 254 257 259 261 264 267 270 272 275 278 281 283 286 289 291 293 295 298 300 301 302 304 305 306 308 310 312 314 314 315 315 316 319 320 319 318 320 322 331 349 355 345 32 106 106 99 93 85 82 80 75 68 63 57 49 40 30 21 15 14 15 17 19 25 33 45 51 54 55 52 53 56 58 59 59 58 58 58 57 55 52 50 52 52 52
234 235 235 237 239 241 242 244 245 247 249 251 254 256 258 261 264 267 269 272 275 278 281 284 287 289 291 292 294 296 298 299 301 302 303 304 307 308 309 310 311 313 313 316 320 319 318 320 324 332 349 3 359 32 106 109 104 98 91 87 85 79 74 71 64 56 47 36 27 21 18 18 18 19 25 29 36 46 51 54 55 51 49 51 54 55 55 55 53 53 51 49 46 46 48 49 49
237 239 238 238 240 242 243 244 246 248 250 252 254 256 258 261 263 266 269 271 274 277 280 283 286 288 289 291 292 294 296 297 298 299 301 303 304 305 305 306 309 310 312 317 319 317 318 325 331 345 358 1 25 109 112 107 102 96 92 91 87 80 75 71 65 57 48 39 31 26 24 22 18 23 31 33 38 45 49 54 56 54 52 50 52 52 51 52 51 49 46 43 44 46 48 49 49
239 240 241 241 242 244 245 246 248 249 251 253 254 256 258 261 263 265 268 271 274 277 280 282 284 286 287 289 290 292 293 294 296 297 299 301 301 300 301 303 306 308 313 317 316 315 320 328 338 352 356 17 110 118 110 105 101 97 97 95 89 82 76 71 65 58 52 45 38 31 27 22 23 30 34 36 40 42 44 51 55 57 56 55 54 52 50 49 48 46 42 40 42 45 47 49 50
241 241 241 242 243 245 247 248 249 250 252 253 255 256 258 261 263 265 268 271 274 276 279 281 282 284 286 287 288 289 291 291 294 295 298 298 296 294 297 301 304 307 312 314 311 312 323 331 342 351 2 103 124 117 107 104 102 103 102 98 91 82 75 71 65 60 55 49 40 33 29 27 32 36 38 40 42 42 42 45 50 53 56 58 57 53 50 46 44 41 38 38 40 43 46 49 50
241 241 242 242 242 244 246 248 249 250 252 253 254 256 258 260 262 265 267 270 273 276 277 279 281 282 284 285 285 286 287 289 291 292 295 293 289 290 294 298 302 306 310 308 304 311 323 332 341 348 80 128 124 114 107 107 109 109 106 102 91 80 75 71 66 61 56 50 43 37 34 36 41 43 43 43 44 46 46 46 47 49 52 56 56 51 48 44 42 40 37 39 41 43 44 46 49
240 241 242 242 242 243 245 246 248 249 251 252 254 256 258 260 262 264 267 270 272 274 275 277 279 280 281 282 283 284 285 286 288 289 289 285 283 286 289 294 299 303 304 298 297 310 320 330 339 5 133 131 122 113 112 114 114 111 108 103 90 81 75 71 67 63 58 54 47 43 44 47 50 49 45 45 49 52 52 51 50 49 52 55 55 51 46 43 42 40 40 44 45 45 43 43 43
241 241 242 242 242 243 245 246 247 249 250 251 253 255 258 260 262 264 266 268 270 272 274 276 277 278 278 279 280 281 283 284 285 285 281 276 276 280 284 290 295 296 292 284 287 304 314 325 338 140 138 129 122 117 118 119 116 112 109 102 90 82 74 70 68 65 62 58 54 54 56 56 55 49 45 49 56 58 56 55 54 53 53 55 57 56 52 47 44 44 47 52 51 48 46 43 41
244 243 243 242 242 243 244 246 247 248 250 251 252 255 257 259 262 263 265 267 269 271 273 274 275 276 277 278 279 280 281 281 281 277 270 267 267 271 278 285 288 284 273 262 275 293 302 320 132 146 137 127 125 124 123 121 116 113 110 103 91 81 75 73 71 69 67 64 63 64 63 60 56 51 52 57 63 63 58 55 55 54 55 57 58 59 59 56 53 53 56 54 48 43 40 40 40
251 247 244 242 241 242 243 245 247 248 249 251 252 254 256 258 261 263 264 266 268 270 272 274 275 275 276 277 277 277 277 274 272 266 258 257 259 263 271 279 277 266 246 239 263 280 287 289 147 146 136 129 131 129 126 121 118 115 110 101 91 85 82 78 73 72 71 71 70 68 65 64 62 60 61 65 67 65 60 56 53 52 54 57 60 62 62 62 59 56 55 48 40 35 35 35 35
273 257 248 243 240 241 244 245 247 249 250 251 253 255 256 259 261 263 265 267 270 271 273 274 275 276 276 275 274 272 270 266 262 254 246 248 254 260 266 270 264 242 221 227 250 261 248 154 151 147 138 136 135 131 126 121 118 114 108 100 94 91 86 80 77 75 75 76 73 70 68 67 66 66 66 68 68 66 64 60 55 52 53 57 61 63 64 63 59 51 50 47 41 36 36 34 33
287 277 265 254 247 246 247 249 250 251 252 253 254 256 258 260 262 265 267 269 270 271 273 275 276 277 276 274 271 268 265 260 252 242 239 245 251 258 261 261 249 220 208 221 236 242 190 152 152 147 142 141 137 131 125 121 118 114 107 102 98 93 87 83 81 79 79 79 76 73 71 70 68 68 68 68 68 67 66 64 62 59 58 60 62 63 62 60 54 48 48 47 41 38 37 35 36
276 276 277 271 264 258 254 254 255 256 256 256 256 258 259 261 263 265 266 268 268 269 273 275 277 278 277 275 269 261 257 253 245 239 240 245 252 257 257 251 231 205 204 216 221 213 169 153 153 149 145 143 137 131 126 122 119 114 109 105 99 92 88 87 85 83 83 82 79 76 73 71 70 68 66 65 65 66 67 66 65 64 64 65 66 64 62 59 54 51 51 49 45 44 44 44 43
263 263 263 262 261 258 256 253 254 256 256 255 255 257 259 259 261 263 264 266 269 272 276 278 279 279 277 273 267 259 254 255 253 249 248 249 252 252 247 235 214 195 202 208 205 188 163 154 153 150 147 143 138 133 127 125 120 114 109 104 98 93 91 90 89 87 86 84 81 78 75 73 70 68 65 64 64 65 66 66 65 66 66 66 67 66 65 63 60 57 55 53 51 50 52 53 52
256 256 255 253 250 248 248 247 248 249 250 251 251 253 255 257 260 263 267 272 277 282 285 286 285 282 278 272 266 258 255 256 255 251 248 246 245 239 229 215 200 193 200 199 189 174 159 155 155 153 149 144 139 134 130 127 120 113 108 102 98 95 95 93 92 92 90 87 83 79 76 73 71 68 66 65 65 66 66 66 65 66 66 66 66 65 64 63 61 58 55 52 52 54 56 57 56
257 254 254 252 249 246 245 245 247 250 249 249 251 252 255 259 263 268 275 281 287 292 294 293 289 285 280 272 263 254 247 247 250 247 238 231 226 221 211 200 193 193 195 188 178 168 158 156 158 155 150 145 141 135 131 127 119 112 107 102 100 99 98 97 96 95 92 88 84 80 76 74 72 70 69 67 66 66 67 66 66 66 66 66 66 65 63 61 59 57 56 56 56 57 56 55 54
261 258 255 253 251 249 245 246 248 251 253 252 253 255 259 265 271 275 282 289 296 301 302 299 294 289 280 269 258 244 234 236 243 238 224 214 211 208 200 193 191 194 191 179 171 162 158 159 160 158 152 147 142 137 134 128 119 113 109 106 105 104 101 100 99 96 93 89 85 82 79 76 73 72 70 68 67 67 67 66 66 65 65 65 65 65 63 62 61 59 58 58 59 58 58 55 52
261 261 259 255 253 252 249 248 248 252 255 257 257 259 264 272 278 282 287 294 303 307 307 303 297 290 277 264 249 230 219 221 225 222 213 206 202 200 195 190 194 196 186 175 167 159 160 162 162 160 154 149 143 139 136 129 122 116 112 111 110 106 103 101 99 96 93 90 88 85 82 79 76 73 71 69 68 67 66 66 65 65 65 65 64 64 63 63 62 60 59 58 57 57 57 56 54
258 260 260 258 256 255 253 250 249 252 257 261 262 264 268 274 279 283 287 294 304 309 310 305 299 290 274 258 237 215 201 203 208 210 206 199 195 195 193 190 198 200 183 174 165 158 163 167 164 162 155 150 144 141 138 131 125 120 117 116 113 109 104 102 100 97 94 91 89 87 84 81 78 75 73 70 68 67 66 65 65 64 63 63 63 63 62 62 61 60 58 57 56 54 53 53 52
254 257 259 260 259 257 254 251 250 250 255 261 264 267 271 273 276 281 286 294 303 310 312 307 300 290 271 247 223 204 189 193 202 205 200 194 189 194 195 191 200 200 181 174 164 158 166 169 166 162 156 150 145 143 140 133 128 123 121 119 115 110 106 104 101 98 95 92 89 87 84 82 79 76 74 72 70 68 67 66 65 64 62 62 62 61 61 60 59 58 57 56 55 53 51 49 48
252 255 258 258 258 258 256 254 252 250 252 259 263 266 269 271 273 279 284 293 303 310 315 311 303 292 270 231 207 192 183 190 200 200 195 191 189 196 197 194 196 191 179 174 164 160 169 170 167 162 156 151 146 144 141 135 131 126 124 122 117 112 108 105 102 100 97 93 90 87 84 82 79 77 75 73 71 70 68 67 66 65 63 61 61 61 60 59 58 57 56 55 54 53 51 49 47
251 252 254 255 255 258 258 256 254 251 250 253 258 262 266 269 273 278 283 291 302 312 317 312 304 295 265 210 194 184 177 187 196 196 192 191 195 199 196 195 192 181 178 175 164 163 170 171 169 163 157 152 147 145 142 137 133 129 127 124 120 115 111 107 104 102 99 95 91 88 85 83 80 77 75 73 71 70 68 67 66 65 63 61 61 61 60 59 58 57 56 55 54 53 51 49 47
250 248 250 252 254 257 257 255 256 254 249 247 250 255 259 263 268 272 278 285 297 311 316 310 304 292 236 198 189 180 175 182 190 194 193 192 200 200 194 193 188 175 177 175 164 166 171 171 168 162 158 153 148 145 142 138 134 131 131 128 124 117 112 109 106 103 100 97 93 90 87 84 81 78 75 73 71 69 67 65 64 63 62 61 61 61 61 59 58 57 56 56 55 54 53 51 48
248 246 247 251 253 255 256 255 255 254 248 244 245 250 253 254 258 262 269 277 289 306 310 305 299 276 209 196 191 181 175 179 185 191 193 195 202 202 194 190 181 172 177 174 167 169 172 172 167 162 159 153 149 146 143 139 136 134 133 131 127 120 115 112 110 106 102 99 95 92 88 86 83 80 76 73 70 68 67 65 63 62 61 60 60 60 60 60 59 58 57 56 56 55 54 52 50
247 246 247 250 252 253 255 255 254 252 248 244 243 246 250 249 250 253 260 269 278 294 302 299 294 269 207 197 194 185 179 179 183 186 190 199 207 205 199 190 176 173 177 173 169 172 173 173 167 163 160 154 151 147 143 140 137 136 135 133 129 123 119 116 114 110 105 101 97 94 90 88 86 83 78 73 70 68 67 65 64 63 61 60 59 59 60 60 59 59 58 57 56 54 53 51 48
249 250 249 250 251 252 253 253 253 251 247 245 243 242 246 247 246 247 251 258 265 279 294 292 286 267 219 199 196 192 185 183 184 185 186 202 212 209 204 195 178 175 177 173 171 173 173 173 168 165 162 155 152 148 144 142 139 138 137 135 132 127 123 120 118 114 109 105 100 96 93 90 89 86 80 73 70 69 68 67 66 65 63 61 59 59 59 59 59 58 57 56 55 53 51 48 46
248 250 250 249 249 250 251 252 252 251 247 244 241 239 243 245 245 246 247 249 253 259 275 282 276 258 226 204 197 196 192 187 186 186 188 200 213 212 208 200 184 177 176 172 172 173 174 173 170 167 163 157 154 150 147 144 142 141 139 138 136 131 128 125 123 118 114 110 105 101 97 95 93 90 83 75 72 72 71 69 68 67 66 63 61 60 59 59 58 58 57 56 54 53 50 47 44
243 245 247 246 246 246 246 249 251 250 248 244 241 238 238 242 244 245 246 245 245 247 251 266 269 254 230 208 199 197 195 191 187 188 191 197 210 213 208 201 187 178 175 172 172 174 175 174 172 170 165 161 157 153 151 148 145 143 142 142 139 136 132 129 127 124 119 115 110 107 103 100 97 94 87 79 77 77 75 72 70 69 68 67 64 61 60 59 58 57 57 55 53 52 50 46 43
240 241 243 242 242 241 241 244 246 248 247 243 241 238 235 239 242 244 246 244 243 245 244 248 259 255 233 212 201 197 195 193 189 188 191 197 207 210 206 197 186 180 177 174 174 175 175 175 175 173 168 164 160 156 154 150 148 146 145 145 142 139 134 132 131 128 124 120 115 112 107 104 102 98 92 87 86 83 79 76 73 71 70 69 67 64 62 59 55 53 53 52 51 49 47 44 41
237 236 239 239 238 238 237 238 242 244 244 242 240 239 236 238 242 242 245 246 243 243 244 244 244 243 230 215 206 200 196 195 191 187 190 199 208 209 203 193 185 183 181 177 176 175 175 175 176 175 171 168 164 160 156 153 151 150 149 149 147 142 136 133 132 129 127 122 118 114 109 106 103 100 96 92 91 88 83 79 77 74 72 70 69 67 63 60 54 49 47 47 46 45 44 41 39
237 235 238 238 236 236 235 235 238 240 241 240 240 242 239 238 241 242 244 245 242 243 244 243 238 229 223 217 212 205 200 198 193 187 188 197 209 210 202 192 185 184 184 180 178 177 176 176 177 177 175 172 168 164 161 157 156 155 155 153 150 145 138 134 131 128 125 121 118 114 109 105 101 99 96 93 91 89 85 81 78 76 74 71 69 65 62 59 53 44 41 42 43 41 40 38 36
239 236 238 239 236 237 236 235 237 239 241 240 240 242 241 238 238 239 241 241 241 243 242 242 240 232 224 220 216 209 205 204 197 189 187 193 207 212 206 197 187 183 183 182 180 180 179 179 179 179 177 175 174 171 168 165 162 161 159 156 153 148 141 135 130 127 122 118 116 112 108 102 97 94 92 90 87 84 81 77 73 72 70 67 63 58 56 51 46 39 36 38 39 36 35 33 31
241 238 238 239 238 237 237 236 238 240 242 241 240 243 243 240 237 235 237 239 240 242 242 241 240 236 227 223 222 214 209 207 201 194 188 190 201 211 209 199 187 182 183 184 183 184 184 182 182 181 179 179 180 179 176 173 170 167 164 161 159 154 146 138 130 124 118 111 106 103 101 98 95 89 84 83 79 72 64 60 57 56 54 50 47 43 41 37 33 30 28 29 31 30 28 27 27
243 240 239 239 239 237 236 236 237 239 242 241 241 242 243 242 238 235 236 238 239 240 241 240 238 237 228 221 222 219 213 207 203 198 192 188 196 209 208 196 185 185 187 186 186 187 187 185 184 183 182 183 186 188 186 182 179 176 172 168 167 164 159 150 133 123 114 106 97 86 81 82 84 81 70 63 59 52 41 36 34 31 28 26 22 19 19 19 17 16 16 18 20 21 20 20 20
242 239 238 238 238 236 234 234 234 236 239 240 239 240 241 240 238 235 235 236 237 237 238 237 235 236 230 218 216 217 215 209 204 203 198 190 192 205 208 194 186 188 189 188 188 189 189 188 187 186 185 187 191 194 193 191 188 185 183 179 177 177 175 175 164 137 121 109 100 87 72 63 64 67 60 43 29 25 21 20 18 15 14 10 7 2 1 2 3 2 4 6 9 9 9 10 11
241 238 237 237 237 234 231 229 229 231 234 236 236 235 237 238 236 234 234 233 233 232 235 235 233 233 232 222 215 213 215 213 210 210 206 195 190 201 206 197 189 187 187 187 189 191 193 192 190 189 190 192 196 198 198 197 196 194 193 189 187 188 189 193 199 196 177 137 113 100 80 60 47 47 48 41 23 10 6 7 8 9 9 6 1 357 354 352 351 351 352 355 358 359 360 1 2
241 238 236 235 234 231 228 225 225 226 227 231 230 228 231 235 232 231 232 230 230 229 232 235 232 231 231 227 220 214 215 218 219 219 215 200 190 196 204 199 191 187 186 188 190 193 195 194 193 194 195 198 200 202 202 201 202 203 203 202 200 200 202 206 213 224 238 249 261 268 11 31 25 20 26 29 24 11 2 358 359 3 4 2 358 355 353 350 348 345 345 347 350 351 353 355 356
241 236 235 233 232 229 227 225 224 223 224 227 227 223 225 230 227 227 230 230 228 228 230 233 231 230 229 227 224 217 215 219 223 224 220 204 190 193 201 199 192 188 189 190 192 194 196 195 195 198 200 203 204 205 206 205 206 208 210 212 213 213 214 218 222 230 240 253 264 275 285 299 316 332 346 358 3 3 358 352 349 348 349 349 349 350 350 348 345 343 342 343 345 346 347 350 350
239 235 234 233 231 229 227 225 224 223 225 227 227 224 225 230 226 224 229 230 227 226 228 231 231 229 228 226 224 219 215 218 220 221 219 206 192 191 198 198 194 191 192 194 195 197 198 199 201 202 204 206 207 208 209 210 210 211 212 215 218 221 224 227 229 234 241 248 258 265 273 282 293 301 311 323 331 336 334 330 330 328 326 328 332 337 341 343 342 341 340 340 341 342 343 345 346
235 233 232 232 230 229 228 226 225 226 228 231 230 226 228 232 229 226 231 231 227 226 227 230 230 229 229 226 223 220 217 218 217 216 214 204 192 190 194 196 195 195 196 197 199 200 202 205 207 208 209 210 211 210 212 214 216 216 217 218 220 224 229 233 235 239 244 249 253 258 264 272 281 288 297 304 308 312 311 305 304 306 308 312 316 322 329 334 337 337 338 338 339 340 340 341 342
232 231 231 232 230 229 228 227 227 228 231 233 232 227 229 233 230 228 232 232 229 228 227 228 230 230 230 226 221 218 216 216 215 213 211 202 192 189 192 195 196 199 200 201 202 204 206 209 212 214 214 215 216 216 218 220 223 223 223 224 224 226 231 236 239 243 247 251 253 256 263 269 274 280 287 291 295 301 304 302 302 302 304 307 310 315 320 325 330 332 333 335 336 337 338 338 339
229 228 225 224 224 225 227 228 229 229 231 232 230 227 229 233 231 227 230 231 228 228 228 228 228 230 230 226 221 216 214 215 214 212 211 203 194 189 190 193 197 201 203 204 206 208 209 211 213 216 218 219 220 222 224 227 229 230 230 230 229 228 232 237 242 244 246 248 251 255 262 267 271 276 280 283 287 292 295 299 302 303 303 305 307 311 315 318 322 326 329 331 333 334 335 336 337
223 221 215 216 222 225 227 230 229 228 231 231 228 224 225 229 229 227 228 228 226 226 227 226 225 227 229 227 222 216 213 214 213 210 208 205 199 192 190 193 197 202 205 207 209 210 212 213 215 218 219 221 222 224 227 231 234 236 236 236 234 232 234 239 242 243 244 247 251 258 265 271 275 279 281 284 287 288 290 293 298 300 301 303 304 306 310 313 317 321 324 327 329 330 332 332 334
217 214 212 217 223 223 223 227 228 228 229 229 226 223 222 223 225 225 224 225 224 225 227 225 223 225 228 228 224 217 212 211 211 209 206 205 203 197 194 195 198 202 205 208 211 213 215 217 219 221 223 224 225 227 229 232 235 236 238 240 239 238 238 240 241 243 246 252 260 269 275 279 281 283 284 285 287 288 290 291 293 295 299 302 303 305 309 312 314 318 322 324 326 327 329 330 331
212 212 214 216 217 217 218 222 228 232 232 231 229 225 223 223 224 223 222 221 220 221 224 224 222 223 227 228 225 220 215 210 208 207 206 205 205 202 200 200 203 204 205 207 210 212 216 219 221 223 225 227 229 230 231 233 235 237 239 240 240 239 240 240 243 248 255 261 269 276 281 284 286 287 286 286 285 286 288 289 290 293 297 302 305 306 309 311 313 317 320 322 324 326 327 328 329
214 215 214 212 214 215 215 217 225 234 236 235 233 228 224 222 223 225 223 220 219 219 220 221 220 221 224 226 225 222 218 214 209 207 207 207 206 205 204 205 208 210 211 211 210 212 215 218 221 224 225 227 229 232 233 235 237 238 239 238 237 237 238 240 245 253 261 268 274 278 282 285 287 288 288 288 287 286 287 288 290 292 296 301 305 306 308 310 312 315 318 320 322 323 325 327 328
218 216 212 212 214 213 213 214 219 230 235 234 232 230 226 222 221 224 224 221 220 220 220 219 218 220 223 224 225 224 221 217 214 210 209 209 208 209 208 208 211 214 217 218 218 218 219 221 224 225 225 226 228 231 234 236 237 238 238 236 235 235 237 241 248 255 262 268 273 277 280 283 285 286 287 287 287 287 287 289 290 292 295 299 303 305 306 307 310 312 315 317 320 321 323 325 326
218 215 211 211 213 212 211 211 212 222 232 233 231 231 229 223 220 222 222 219 218 219 220 220 218 219 222 223 223 224 223 221 218 215 214 212 211 212 212 213 214 216 219 221 222 224 224 225 226 226 226 227 227 229 232 233 235 237 236 234 233 234 237 242 248 253 259 265 270 275 278 280 282 284 285 284 285 286 287 289 290 293 295 297 300 302 303 304 307 310 312 315 317 319 321 322 323